KD7KCN-5 Weather Reports


Display with metric or nautical units.
time (UTC)temp
F
wind
direction
speed
MPH
gust
MPH
rain 1hr
in
rain 24hr
in
rain mn
in
humidity
%
barometer
mb
20260901063546 60 349 3.0 12.0 0.00 0.04 0.04 68 1018.5
20260901060548 59 330 7.0 13.0 0.00 0.04 0.04 69 1018.3
20260901055547 59 339 10.0 16.0 0.00 0.04 0.04 69 1018.4
20260901054547 60 334 8.0 13.0 0.00 0.04 0.04 69 1018.3
20260901053546 59 351 10.0 13.0 0.00 0.04 0.04 68 1018.4
20260901052547 59 344 6.0 13.0 0.00 0.04 0.04 68 1018.3
20260901051546 59 329 8.0 16.0 0.00 0.04 0.04 67 1018.4
20260901050546 59 346 11.0 16.0 0.00 0.04 0.04 67 1018.3
20260901043547 59 355 16.0 20.0 0.00 0.04 0.04 68 1018.6
20260901040546 59 336 11.0 15.0 0.00 0.04 0.04 69 1018.5
20260901031546 59 340 11.0 19.0 0.01 0.04 0.04 73 1017.8
20260901030547 58 358 8.0 18.0 0.01 0.04 0.04 75 1017.8
20260901025548 58 326 10.0 21.0 0.01 0.04 0.04 76 1017.8
20260901024548 59 249 13.0 18.0 0.02 0.04 0.04 74 1017.4
20260901023546 61 338 15.0 24.0 0.01 0.03 0.03 67 1017.3
20260901021547 62 335 14.0 28.0 0.01 0.03 0.03 68 1016.4
20260901020546 64 246 18.0 26.0 0.01 0.03 0.03 64 1015.9
20260901015549 71 348 10.0 30.0 0.01 0.03 0.03 53 1015.8
20260901014548 75 85 3.0 6.0 0.00 0.02 0.02 38 1015.3
20260901012547 75 157 2.0 19.0 0.00 0.02 0.02 39 1015.0
20260901011547 75 138 8.0 21.0 0.00 0.02 0.02 40 1014.8
20260901003547 72 168 6.0 18.0 0.01 0.02 0.02 51 1014.9
20260831235547 73 97 7.0 15.0 0.02 0.02 0.02 51 1015.4
20260831223547 77 157 20.0 38.0 0.00 0.00 0.00 41 1015.1
20260831214547 75 139 16.0 31.0 0.00 0.00 0.00 47 1015.4
20260831195550 74 132 26.0 44.0 0.00 0.00 0.00 49 1015.9
20260831194547 76 130 25.0 38.0 0.00 0.00 0.00 48 1015.6
20260831193549 76 130 22.0 41.0 0.00 0.00 0.00 47 1015.8
20260831192547 76 107 18.0 34.0 0.00 0.00 0.00 46 1015.8
20260831191548 76 141 16.0 36.0 0.00 0.00 0.00 47 1016.0
20260831185548 76 156 22.0 37.0 0.00 0.00 0.00 46 1016.3
20260831180547 76 148 4.0 29.0 0.00 0.00 0.00 50 1016.9
20260831173547 75 134 15.0 26.0 0.00 0.00 0.00 50 1017.2
20260831170547 74 144 12.0 23.0 0.00 0.00 0.00 51 1017.3
20260831165548 77 162 17.0 33.0 0.00 0.00 0.00 48 1017.3
20260831162548 78 138 14.0 25.0 0.00 0.00 0.00 46 1018.2
20260831155548 76 116 13.0 19.0 0.00 0.00 0.00 49 1017.5
20260831154548 75 111 12.0 19.0 0.00 0.00 0.00 49 1017.5
20260831151548 74 149 18.0 24.0 0.00 0.00 0.00 51 1017.4
20260831145548 75 108 8.0 13.0 0.00 0.00 0.00 46 1017.4
20260831144549 74 103 6.0 9.0 0.00 0.00 0.00 47 1017.5
20260831143548 72 133 5.0 8.0 0.00 0.00 0.00 49 1017.6
20260831142550 71 115 6.0 8.0 0.00 0.00 0.00 50 1017.5
20260831141548 70 130 5.0 7.0 0.00 0.00 0.00 50 1017.4
20260831140548 70 132 2.0 5.0 0.00 0.00 0.00 51 1017.3
20260831135549 70 132 3.0 8.0 0.00 0.00 0.00 51 1017.2
20260831134548 69 130 6.0 9.0 0.00 0.00 0.00 51 1017.1
20260831133548 69 129 4.0 7.0 0.00 0.00 0.00 52 1016.9
20260831132548 69 141 4.0 7.0 0.00 0.00 0.00 53 1016.8
20260831131548 69 156 2.0 5.0 0.00 0.00 0.00 51 1016.8
20260831130548 69 0 0.0 4.0 0.00 0.00 0.00 51 1016.7
20260831125548 70 162 2.0 5.0 0.00 0.00 0.00 48 1016.6
20260831124548 70 167 2.0 10.0 0.00 0.00 0.00 54 1016.6
20260831123548 70 156 2.0 6.0 0.00 0.00 0.00 52 1016.6
20260831122549 70 165 3.0 11.0 0.00 0.00 0.00 53 1016.5
20260831121549 70 159 4.0 8.0 0.00 0.00 0.00 50 1016.5
20260831115548 70 169 5.0 8.0 0.00 0.00 0.00 47 1016.6
20260831114548 70 179 5.0 8.0 0.00 0.00 0.00 46 1016.7
20260831113551 71 173 5.0 11.0 0.00 0.00 0.00 44 1016.8
20260831112548 71 168 4.0 12.0 0.00 0.00 0.00 41 1016.8
20260831111549 71 179 6.0 11.0 0.00 0.00 0.00 40 1016.9
20260831110550 71 176 6.0 9.0 0.00 0.00 0.00 34 1016.9
20260831104548 72 172 6.0 9.0 0.00 0.00 0.00 31 1016.9
20260831103549 72 182 5.0 9.0 0.00 0.00 0.00 31 1016.9
20260831100551 72 154 5.0 9.0 0.00 0.00 0.00 29 1016.8
20260831095549 73 173 6.0 9.0 0.00 0.00 0.00 29 1016.7
20260831094549 72 185 5.0 8.0 0.00 0.00 0.00 29 1016.6
20260831093550 73 166 5.0 6.0 0.00 0.00 0.00 29 1016.5
20260831092548 74 166 4.0 8.0 0.00 0.00 0.00 29 1016.4
20260831091549 74 168 3.0 9.0 0.00 0.00 0.00 29 1016.4
20260831085549 73 189 5.0 8.0 0.00 0.00 0.00 30 1016.2
20260831084549 73 186 4.0 8.0 0.00 0.00 0.00 30 1016.2
20260831083549 73 181 5.0 8.0 0.00 0.00 0.00 31 1016.1
20260831082549 73 0 0.0 0.0 0.00 0.00 0.00 31 1016.2
20260831081549 73 0 0.0 0.0 0.00 0.00 0.00 31 1016.2
20260831080550 73 0 0.0 0.0 0.00 0.00 0.00 31 1016.0
20260831075549 73 0 0.0 0.0 0.00 0.00 0.00 31 1016.0
20260831074550 74 0 0.0 0.0 0.00 0.00 0.00 31 1015.9
20260831073549 74 0 0.0 0.0 0.00 0.00 0.00 30 1016.0
20260831072551 74 0 0.0 0.0 0.00 0.00 0.00 29 1015.9
20260831071549 74 0 0.0 1.0 0.00 0.00 0.00 29 1016.0
20260831070549 75 0 0.0 2.0 0.00 0.00 0.00 29 1015.9
20260831065549 75 210 2.0 6.0 0.00 0.00 0.00 28 1015.9
20260831064549 75 212 4.0 8.0 0.00 0.00 0.00 29 1015.9